TimeCST,TemperatureF,Dew PointF,Humidity,Sea Level PressureIn,VisibilityMPH,Wind Direction,Wind SpeedMPH,Gust SpeedMPH,PrecipitationIn,Events,Conditions,WindDirDegrees,DateUTC
12:15 AM,35.6,32.7,89,29.65,10.0,WNW,19.6,23.0,N/A,,Overcast,290,2012-11-11 06:15:00
12:35 AM,35.1,32.2,89,29.66,10.0,WNW,20.7,25.3,N/A,,Overcast,290,2012-11-11 06:35:00
12:54 AM,33.3,31.6,94,29.66,10.0,West,18.4,25.3,N/A,,Overcast,280,2012-11-11 06:54:00
1:15 AM,32.9,30.2,90,29.68,10.0,WNW,15.0,26.5,N/A,,Overcast,290,2012-11-11 07:15:00
1:35 AM,32.0,28.9,88,29.68,10.0,West,19.6,-,N/A,,Overcast,280,2012-11-11 07:35:00
1:54 AM,31.8,28.8,88,29.67,10.0,West,19.6,-,N/A,,Overcast,280,2012-11-11 07:54:00
2:15 AM,30.9,27.3,86,29.68,10.0,WNW,18.4,23.0,N/A,,Overcast,300,2012-11-11 08:15:00
2:35 AM,30.9,27.0,85,29.70,10.0,WNW,19.6,25.3,N/A,,Overcast,290,2012-11-11 08:35:00
2:54 AM,30.6,26.1,83,29.71,10.0,WNW,16.1,26.5,N/A,,Overcast,290,2012-11-11 08:54:00
3:15 AM,30.2,25.9,84,29.72,10.0,WNW,17.3,25.3,N/A,,Overcast,290,2012-11-11 09:15:00
3:35 AM,29.3,25.3,85,29.74,10.0,WNW,20.7,-,N/A,,Overcast,290,2012-11-11 09:35:00
3:55 AM,28.4,23.9,83,29.75,10.0,West,19.6,26.5,N/A,,Overcast,280,2012-11-11 09:55:00
4:14 AM,28.4,23.5,82,29.76,10.0,WNW,20.7,29.9,N/A,,Overcast,290,2012-11-11 10:14:00
4:35 AM,28.0,23.2,82,29.76,10.0,West,23.0,28.8,N/A,,Overcast,280,2012-11-11 10:35:00
5:34 AM,26.6,21.4,81,29.77,10.0,WNW,24.2,31.1,N/A,,Overcast,300,2012-11-11 11:34:00
5:55 AM,26.2,20.8,80,29.80,10.0,WNW,24.2,28.8,N/A,,Overcast,290,2012-11-11 11:55:00
6:15 AM,25.5,19.9,79,29.80,10.0,West,24.2,28.8,N/A,,Mostly Cloudy,280,2012-11-11 12:15:00
6:55 AM,25.3,20.1,81,29.82,10.0,West,19.6,27.6,N/A,,Overcast,280,2012-11-11 12:55:00
7:35 AM,24.3,19.4,82,29.82,10.0,WNW,21.9,25.3,N/A,,Overcast,290,2012-11-11 13:35:00
7:55 AM,23.5,18.3,80,29.85,10.0,West,17.3,23.0,N/A,,Overcast,280,2012-11-11 13:55:00
8:14 AM,23.0,17.4,79,29.84,10.0,WNW,20.7,26.5,N/A,,Overcast,300,2012-11-11 14:14:00
8:54 AM,22.1,16.5,79,29.86,10.0,West,17.3,25.3,N/A,,Scattered Clouds,280,2012-11-11 14:54:00
9:15 AM,22.5,16.2,77,29.85,10.0,WNW,13.8,24.2,N/A,,Scattered Clouds,290,2012-11-11 15:15:00
9:35 AM,23.0,16.5,76,29.85,10.0,WNW,18.4,-,N/A,,Scattered Clouds,290,2012-11-11 15:35:00
9:55 AM,23.2,16.5,76,29.87,10.0,West,16.1,-,N/A,,Clear,280,2012-11-11 15:55:00
10:15 AM,23.5,16.2,73,29.87,10.0,West,18.4,25.3,N/A,,Clear,270,2012-11-11 16:15:00
10:34 AM,24.4,16.9,73,29.87,10.0,West,17.3,-,N/A,,Clear,280,2012-11-11 16:34:00
10:55 AM,24.6,16.9,72,29.86,10.0,West,20.7,24.2,N/A,,Clear,270,2012-11-11 16:55:00
11:15 AM,24.8,16.2,70,29.88,10.0,West,17.3,27.6,N/A,,Clear,280,2012-11-11 17:15:00
11:35 AM,24.6,16.3,71,29.87,10.0,West,19.6,28.8,N/A,,Clear,280,2012-11-11 17:35:00
12:15 PM,24.4,16.5,72,29.89,10.0,West,18.4,21.9,N/A,,Clear,260,2012-11-11 18:15:00
12:35 PM,25.0,16.2,69,29.88,10.0,West,16.1,23.0,N/A,,Scattered Clouds,260,2012-11-11 18:35:00
12:55 PM,25.5,16.3,68,29.87,10.0,West,20.7,-,N/A,,Scattered Clouds,280,2012-11-11 18:55:00
1:14 PM,25.5,15.4,66,29.87,10.0,West,20.7,27.6,N/A,,Scattered Clouds,270,2012-11-11 19:14:00
1:35 PM,25.3,15.8,67,29.86,10.0,West,25.3,32.2,N/A,,Clear,270,2012-11-11 19:35:00
1:55 PM,26.1,17.1,69,29.85,10.0,West,21.9,26.5,N/A,,Clear,280,2012-11-11 19:55:00
2:15 PM,25.2,14.9,65,29.87,10.0,West,21.9,28.8,N/A,,Scattered Clouds,260,2012-11-11 20:15:00
2:35 PM,25.5,15.6,66,29.88,10.0,West,23.0,26.5,N/A,,Scattered Clouds,270,2012-11-11 20:35:00
2:55 PM,24.3,13.6,64,29.88,10.0,West,21.9,29.9,N/A,,Scattered Clouds,270,2012-11-11 20:55:00
3:15 PM,24.4,14.5,66,29.88,10.0,West,17.3,28.8,N/A,,Clear,270,2012-11-11 21:15:00
3:35 PM,23.9,13.3,64,29.89,10.0,West,21.9,28.8,N/A,,Clear,260,2012-11-11 21:35:00
3:55 PM,23.0,12.6,64,29.90,10.0,West,25.3,32.2,N/A,,Clear,260,2012-11-11 21:55:00
4:14 PM,22.8,13.1,66,29.90,10.0,West,24.2,29.9,N/A,,Clear,270,2012-11-11 22:14:00
4:35 PM,21.9,13.3,69,29.91,10.0,West,17.3,27.6,N/A,,Clear,270,2012-11-11 22:35:00
4:55 PM,21.2,12.9,70,29.91,10.0,West,23.0,31.1,N/A,,Clear,270,2012-11-11 22:55:00
5:15 PM,20.8,11.7,68,29.92,10.0,West,26.5,36.8,N/A,,Scattered Clouds,260,2012-11-11 23:15:00
5:35 PM,20.7,13.1,73,29.94,10.0,West,16.1,23.0,N/A,,Mostly Cloudy,280,2012-11-11 23:35:00
5:54 PM,20.7,12.4,70,29.95,10.0,West,17.3,26.5,N/A,Snow,Light Snow,270,2012-11-11 23:54:00
6:15 PM,20.8,12.6,70,29.95,10.0,West,20.7,25.3,N/A,,Overcast,270,2012-11-12 00:15:00
6:34 PM,21.0,12.2,69,29.96,10.0,West,18.4,25.3,N/A,,Overcast,270,2012-11-12 00:34:00
6:55 PM,21.2,11.5,66,29.96,10.0,West,25.3,31.1,N/A,,Overcast,270,2012-11-12 00:55:00
7:15 PM,21.2,12.4,69,29.96,10.0,West,18.4,25.3,N/A,,Overcast,270,2012-11-12 01:15:00
7:35 PM,21.2,12.4,69,29.96,10.0,West,18.4,26.5,N/A,Snow,Light Snow,280,2012-11-12 01:35:00
7:55 PM,21.2,12.2,68,29.96,10.0,West,18.4,-,N/A,,Overcast,280,2012-11-12 01:55:00
8:15 PM,21.6,12.0,67,29.96,10.0,West,23.0,29.9,N/A,,Overcast,270,2012-11-12 02:15:00
8:34 PM,21.2,11.1,65,29.96,10.0,West,21.9,32.2,N/A,,Overcast,270,2012-11-12 02:34:00
8:55 PM,20.8,11.7,68,29.97,10.0,West,19.6,25.3,N/A,,Overcast,270,2012-11-12 02:55:00
9:15 PM,20.7,12.0,69,29.97,10.0,West,17.3,23.0,N/A,,Overcast,270,2012-11-12 03:15:00
9:35 PM,19.8,10.4,67,29.97,10.0,West,18.4,27.6,N/A,,Scattered Clouds,270,2012-11-12 03:35:00
9:55 PM,19.6,10.9,69,29.97,10.0,West,15.0,26.5,N/A,,Clear,270,2012-11-12 03:55:00
10:15 PM,19.4,11.7,72,29.97,10.0,West,19.6,25.3,N/A,,Clear,270,2012-11-12 04:15:00
10:35 PM,19.4,11.8,72,29.97,10.0,West,17.3,23.0,N/A,,Clear,270,2012-11-12 04:35:00
10:54 PM,19.4,12.2,74,29.96,10.0,West,16.1,27.6,N/A,,Scattered Clouds,260,2012-11-12 04:54:00
11:15 PM,19.4,12.7,75,29.97,10.0,West,18.4,-,N/A,,Clear,270,2012-11-12 05:15:00
11:35 PM,19.9,13.5,76,29.97,10.0,West,19.6,24.2,N/A,,Mostly Cloudy,260,2012-11-12 05:35:00
11:55 PM,19.9,14.0,78,29.97,10.0,West,17.3,20.7,N/A,Snow,Light Snow,260,2012-11-12 05:55:00